{"data":{"norad_id":62414,"intl_designator":"2024-249F","name":"STARLINK-11445 [DTC]","alt_names":[],"object_type":"PAYLOAD","status":"ACTIVE","operator":null,"country":"US","launch_date":"2024-12-23","launch_site_code":"AFETR","launch_vehicle":null,"mission":null,"orbit_class":"UNKNOWN","rcs_meters":null,"size_class":null,"mass_kg":null,"dimensions":null,"purposes":["comms"],"wikipedia_slug":null,"has_3d_model":false,"image_url":null,"decayed_at":null,"tle_current":{"epoch":"2026-05-25T04:33:21.580704Z","epoch_age_seconds":48890,"freshness":"FRESH","line1":"1 62414U 24249F   26145.18983311  .00171520  00000+0  13098-2 0  9998","line2":"2 62414  43.0043  66.3986 0002616 256.8087 103.2489 15.70892990 81514","mean_motion":15.7089299,"eccentricity":0.0002616,"inclination_deg":43.0043,"raan_deg":66.3986,"arg_perigee_deg":256.8087,"mean_anomaly_deg":103.2489,"bstar":0.0013098,"rev_number":8151,"period_min":91.667606206582,"perigee_km":354.58187036109,"apogee_km":358.1053506165,"semimajor_km":6734.4806104888,"source":"CELESTRAK","updated_at":"2026-05-25T13:38:19.653065Z"}}}